Daggett-Barstow, CA

2:48 PM PDT on September 24, 2017 (GMT -0700)
Barstow-Daggett

Weather History for KDAG - August, 2014

Change the Weather History Date:

Thursday, August 21, 2014

  Actual Average Record
Temperature  
Mean Temperature 82 °F 87 °F  
Max Temperature 96 °F 102 °F 109 °F (1950)
Min Temperature 70 °F 72 °F 55 °F (1959)
Degree Days  
Heating Degree Days 0    
Cooling Degree Days 18    
Growing Degree Days 32 (Base 50)    
Moisture  
Dew Point 50 °F    
Average Humidity 34    
Maximum Humidity 49    
Minimum Humidity 16    
Precipitation  
Precipitation 0.00 in 0.01 in 0.40 in (1995)
Month to date precipitation 0.19  
Year to date precipitation 2.69  
Sea Level Pressure  
Sea Level Pressure 29.86 in    
Wind  
Wind Speed 12 mph (NW)    
Max Wind Speed 36 mph    
Max Gust Speed 43 mph    
Visibility 10 miles    
Events Rain    
T = Trace of Precipitation, MM = Missing Value Source: NWS Daily Summary

Daily Weather History Graph

Daily Weather History Graph

Search for Another Location

Airport or City:

Trip Planner

Search our weather history database for the weather conditions in past years. The results will help you decide how hot, cold, wet, or windy it might be!

Date:

Astronomy

Aug. 21, 2014 Rise Set
Actual Time 6:11 AM PDT 7:27 PM PDT
Civil Twilight 5:45 AM PDT 7:54 PM PDT
Nautical Twilight 5:14 AM PDT 8:25 PM PDT
Astronomical Twilight 4:41 AM PDT 8:58 PM PDT
Moon 2:50 AM PDT (8/21) 4:56 PM PDT (8/21)
Length of Visible Light 14h 08m
Length of Day
13h 15m
Waning Crescent, 13% of the Moon is Illuminated
Aug 21
Waning Crescent
Aug 25
New
Sep 2
First Quarter
Sep 8
Full
Sep 15
Last Quarter

Hourly Weather History & Observations

Time (PDT) Temp. Heat Index Dew Point Humidity Pressure Visibility Wind Dir Wind Speed Gust Speed Precip Events Conditions
12:50 AM 75.9 °F - 51.1 °F 42% 29.86 in 10.0 mi West 11.5 mph - N/A   Clear
1:50 AM 73.9 °F - 52.0 °F 46% 29.85 in 10.0 mi West 12.7 mph - N/A   Clear
3:50 AM 72.0 °F - 51.1 °F 48% 29.86 in 10.0 mi West 5.8 mph - N/A   Clear
5:50 AM 70.0 °F - 50.0 °F 49% 29.87 in 10.0 mi West 8.1 mph - N/A   Clear
6:50 AM 71.1 °F - 48.9 °F 45% 29.89 in 10.0 mi West 9.2 mph - N/A   Clear
8:50 AM 79.0 °F - 48.9 °F 35% 29.90 in 10.0 mi West 10.4 mph - N/A   Scattered Clouds
9:50 AM 82.9 °F - 48.9 °F 31% 29.90 in 10.0 mi WNW 11.5 mph - N/A   Clear
10:50 AM 86.0 °F - 48.0 °F 27% 29.90 in 10.0 mi West 8.1 mph - N/A   Clear
11:50 AM 90.0 °F - 45.0 °F 21% 29.88 in 10.0 mi NNW 6.9 mph - N/A   Clear
12:50 PM 93.0 °F - 44.1 °F 18% 29.86 in 10.0 mi NNE 6.9 mph - N/A   Clear
2:50 PM 95.0 °F - 45.0 °F 18% 29.81 in 10.0 mi NNE 8.1 mph - N/A   Mostly Cloudy
3:50 PM 91.0 °F - 46.0 °F 21% 29.81 in 10.0 mi SSE 26.5 mph 33.4 mph N/A   Scattered Clouds
4:50 PM 93.9 °F - 41.0 °F 16% 29.80 in 10.0 mi SSE 9.2 mph - N/A   Partly Cloudy
5:26 PM 91.9 °F - 51.1 °F 25% 29.88 in 10.0 mi ENE 35.7 mph 42.6 mph N/A   Clear
5:50 PM 82.9 °F 82.4 °F 57.0 °F 41% 29.83 in 10.0 mi ENE 27.6 mph 38.0 mph 0.00 in Rain Light Rain
6:50 PM 84.9 °F 83.2 °F 53.1 °F 33% 29.83 in 10.0 mi SE 18.4 mph - 0.00 in   Clear
7:22 PM 82.9 °F 82.0 °F 55.0 °F 38% 29.91 in 10.0 mi ESE 11.5 mph - N/A   Mostly Cloudy
7:39 PM 82.9 °F 81.9 °F 54.0 °F 37% 29.91 in 10.0 mi East 6.9 mph 16.1 mph N/A   Scattered Clouds
7:50 PM 82.0 °F 81.2 °F 53.1 °F 37% 29.84 in 10.0 mi SE 12.7 mph 20.7 mph N/A   Partly Cloudy
8:50 PM 81.0 °F - 52.0 °F 36% 29.86 in 10.0 mi ENE 12.7 mph 19.6 mph N/A   Clear
10:50 PM 78.1 °F - 54.0 °F 43% 29.88 in 10.0 mi WNW 5.8 mph - N/A   Overcast
11:50 PM 77.0 °F - 55.0 °F 47% 29.89 in 10.0 mi North 6.9 mph - N/A   Mostly Cloudy